Le nostre stazioni meteo in Italia

Pubblicità
Il mio iltempo24.it
Desenzano, Italia (16089): Temperatura & dewpoint: 10.12.2017 17:00:00 - 16.12.2017 17:00:00 (CET)Desenzano, Italia (16089): velocità del vento: 10.12.2017 17:00:00 - 16.12.2017 17:00:00 (CET)Desenzano, Italia (16089): direzione del vento: 10.12.2017 17:00:00 - 16.12.2017 17:00:00 (CET)Desenzano, Italia (16089): reduced air pressure: 10.12.2017 17:00:00 - 16.12.2017 17:00:00 (CET)Desenzano, Italia (16089): precipitazioni: 10.12.2017 17:00:00 - 16.12.2017 17:00:00 (CET)
Data & Tempo tt [°C] td [°C] ff [km/h] ff [kn] dd ppp [hPa] rr [mm]
16.12.2017 17:00:00 - - - - - - -
16.12.2017 16:00:00 7,2 1,8 5 3 OSO 1009,6 -
16.12.2017 15:00:00 8,3 2,7 5 3 SSO 1009,1 -
16.12.2017 14:00:00 9,0 2,3 4 2 E 1008,6 -
16.12.2017 13:00:00 8,1 4,3 0 0 N 1008,3 0,0
16.12.2017 12:00:00 6,4 4,9 2 1 NNO 1008,3 -
16.12.2017 11:00:00 4,5 4,2 0 0 N 1008,1 -
16.12.2017 10:00:00 2,9 2,3 2 1 SO 1007,4 -
16.12.2017 09:00:00 1,9 0,9 0 0 N 1006,6 -
16.12.2017 08:00:00 1,9 0,7 0 0 N 1005,4 -
16.12.2017 07:00:00 1,5 -0,5 0 0 N 1004,5 0,0
16.12.2017 06:00:00 2,6 0,6 0 0 N 1003,6 -
16.12.2017 05:00:00 3,6 1,8 4 2 SSE 1002,3 -
16.12.2017 04:00:00 3,7 1,9 8 4 SE 1001,5 -
16.12.2017 03:00:00 2,4 1,8 2 1 SO 1000,6 -
16.12.2017 02:00:00 3,4 3,4 2 1 OSO 999,2 -
16.12.2017 01:00:00 2,2 1,9 4 2 SO 998,6 0,0
16.12.2017 00:00:00 2,2 1,6 4 2 OSO 998,7 -
15.12.2017 23:00:00 2,3 1,6 4 2 S 998,3 -
15.12.2017 22:00:00 3,3 2,7 0 0 N 998,0 -
15.12.2017 21:00:00 3,5 2,9 4 2 SO 998,1 -
15.12.2017 20:00:00 3,2 2,0 4 2 SSO 997,9 -
15.12.2017 19:00:00 3,8 2,4 0 0 N 997,6 0,0
15.12.2017 18:00:00 4,2 2,7 4 2 SSO 997,7 -
15.12.2017 17:00:00 4,8 3,0 5 3 S 997,4 -
15.12.2017 16:00:00 6,1 3,9 9 5 SO 997,5 -
15.12.2017 15:00:00 6,1 3,7 8 4 SSE 997,6 -
15.12.2017 14:00:00 6,1 2,9 5 3 OSO 998,5 -
15.12.2017 13:00:00 9,1 5,8 5 3 SSE 998,6 0,0
15.12.2017 12:00:00 8,2 5,6 4 2 SSO 999,5 -
15.12.2017 11:00:00 7,4 6,3 4 2 S 1000,3 -
15.12.2017 10:00:00 6,7 6,7 2 1 SSO 1000,1 -
15.12.2017 09:00:00 5,7 5,7 4 2 SSO 999,6 -
15.12.2017 08:00:00 5,1 5,1 0 0 N 999,4 -
15.12.2017 07:00:00 4,4 4,4 2 1 SSO 999,0 0,0
15.12.2017 06:00:00 4,1 4,1 0 0 N 998,7 -
15.12.2017 05:00:00 2,5 2,1 2 1 OSO 999,1 -
15.12.2017 04:00:00 1,8 1,2 0 0 N 1000,1 -
15.12.2017 03:00:00 1,6 0,9 4 2 NO 1000,8 -
15.12.2017 02:00:00 1,9 1,0 4 2 SSE 1001,0 -
15.12.2017 01:00:00 2,6 1,6 4 2 SSE 1001,7 0,0
15.12.2017 00:00:00 3,3 2,3 4 2 SSE 1002,7 -
14.12.2017 23:00:00 4,4 3,4 0 0 N 1003,0 -
14.12.2017 22:00:00 4,9 4,0 0 0 N 1003,6 -
14.12.2017 21:00:00 4,6 3,6 2 1 ESE 1004,0 -
14.12.2017 20:00:00 4,6 3,6 2 1 E 1004,7 -
14.12.2017 19:00:00 4,5 3,3 0 0 N 1005,4 0,0
14.12.2017 18:00:00 4,4 2,4 0 0 N 1005,9 -
14.12.2017 17:00:00 5,5 3,1 2 1 SSE 1005,8 -
14.12.2017 16:00:00 6,6 4,4 2 1 SO 1006,2 -
14.12.2017 15:00:00 7,3 5,4 2 1 S 1006,3 -
14.12.2017 14:00:00 7,2 6,1 4 2 SSO 1007,0 -
14.12.2017 13:00:00 5,7 5,1 4 2 SSO 1007,8 0,0
14.12.2017 12:00:00 5,1 4,8 2 1 SSO 1008,8 -
14.12.2017 11:00:00 4,5 4,2 8 4 SSE 1009,7 -
14.12.2017 10:00:00 4,6 4,3 2 1 SO 1009,7 -
14.12.2017 09:00:00 4,9 4,6 0 0 N 1009,6 -
14.12.2017 08:00:00 4,6 4,3 0 0 N 1009,4 -
14.12.2017 07:00:00 4,5 4,2 0 0 N 1009,7 0,0
14.12.2017 06:00:00 4,9 4,8 2 1 S 1009,9 -
14.12.2017 05:00:00 5,1 5,0 0 0 N 1010,5 -
14.12.2017 04:00:00 4,8 4,7 0 0 N 1010,7 -
14.12.2017 03:00:00 4,3 4,0 4 2 SSE 1011,2 -
14.12.2017 02:00:00 4,9 4,6 4 2 SSE 1011,3 -
14.12.2017 01:00:00 4,3 3,9 0 0 N 1012,7 0,0
14.12.2017 00:00:00 4,5 4,1 0 0 N 1014,1 -
13.12.2017 23:00:00 4,5 3,8 0 0 N 1014,5 -
13.12.2017 22:00:00 4,0 3,0 0 0 N 1014,6 -
13.12.2017 21:00:00 3,9 2,2 2 1 SSO 1015,8 -
13.12.2017 20:00:00 4,5 2,2 0 0 N 1015,9 -
13.12.2017 19:00:00 5,3 2,6 0 0 N 1015,9 0,0
13.12.2017 18:00:00 5,5 2,1 0 0 N 1016,3 -
13.12.2017 17:00:00 7,3 3,3 2 1 SE 1015,8 -
13.12.2017 16:00:00 8,9 4,3 2 1 S 1015,7 -
13.12.2017 15:00:00 10,7 4,5 0 0 N 1015,6 -
13.12.2017 14:00:00 10,9 4,3 4 2 N 1016,0 -
13.12.2017 13:00:00 10,3 4,8 11 6 NO 1016,6 0,0
13.12.2017 12:00:00 8,7 4,8 2 1 ENE 1017,1 -
13.12.2017 11:00:00 8,0 5,4 5 3 ENE 1017,7 -
13.12.2017 10:00:00 8,2 7,0 18 10 NNO 1017,4 -
13.12.2017 09:00:00 5,0 4,9 2 1 OSO 1017,3 -
13.12.2017 08:00:00 3,9 3,6 4 2 SSE 1016,8 -
13.12.2017 07:00:00 3,1 2,7 4 2 SSO 1016,4 0,0
13.12.2017 06:00:00 4,4 4,4 4 2 S 1015,9 -
13.12.2017 05:00:00 1,8 1,4 4 2 OSO 1015,5 -
13.12.2017 04:00:00 2,1 1,5 8 4 S 1015,7 -
13.12.2017 03:00:00 3,9 3,9 2 1 SO 1015,4 -
13.12.2017 02:00:00 3,5 3,5 5 3 SSO 1014,8 -
13.12.2017 01:00:00 4,5 4,5 5 3 SSO 1015,1 0,0
13.12.2017 00:00:00 3,2 2,9 4 2 SSO 1014,9 -
12.12.2017 23:00:00 3,3 3,0 2 1 SO 1014,2 -
12.12.2017 22:00:00 4,1 4,0 0 0 N 1014,0 -
12.12.2017 21:00:00 4,4 4,3 0 0 N 1013,5 -
12.12.2017 20:00:00 4,7 4,4 2 1 SSO 1013,2 -
12.12.2017 19:00:00 5,1 4,8 0 0 N 1012,5 0,0
12.12.2017 18:00:00 5,7 5,4 0 0 N 1011,9 -
12.12.2017 17:00:00 6,3 6,2 0 0 N 1011,6 -
12.12.2017 16:00:00 6,5 6,5 0 0 N 1011,1 -
12.12.2017 15:00:00 6,6 6,6 0 0 N 1010,2 -
12.12.2017 14:00:00 5,7 5,7 2 1 E 1009,8 -
12.12.2017 13:00:00 5,4 5,4 4 2 SSE 1009,6 0,0
12.12.2017 12:00:00 5,0 5,0 0 0 N 1009,4 -
12.12.2017 11:00:00 3,3 3,3 4 2 S 1009,3 -
12.12.2017 10:00:00 2,3 2,2 2 1 S 1008,4 -
12.12.2017 09:00:00 1,6 1,3 5 3 SSO 1007,6 -
12.12.2017 08:00:00 1,7 1,1 11 6 S 1005,9 -
12.12.2017 07:00:00 3,7 3,4 9 5 SSE 1004,5 0,0
12.12.2017 06:00:00 5,0 5,0 8 4 SO 1002,9 -
12.12.2017 05:00:00 4,6 4,2 4 2 SSE 1001,9 -
12.12.2017 04:00:00 5,7 5,4 4 2 S 1000,9 -
12.12.2017 03:00:00 7,7 7,7 0 0 N 999,8 -
12.12.2017 02:00:00 8,8 8,8 4 2 S 998,6 -
12.12.2017 01:00:00 9,4 9,4 0 0 N 998,0 0,0
12.12.2017 00:00:00 9,6 9,6 0 0 N 997,1 -
11.12.2017 23:00:00 9,9 9,9 0 0 N 996,5 -
11.12.2017 22:00:00 9,5 9,5 4 2 NO 996,4 -
11.12.2017 21:00:00 9,4 9,4 0 0 N 996,3 -
11.12.2017 20:00:00 9,7 9,7 11 6 NNO 996,0 -
11.12.2017 19:00:00 9,1 9,1 21 11 NNO 996,2 0,0
11.12.2017 18:00:00 8,3 8,3 18 10 N 996,8 -
11.12.2017 17:00:00 7,9 7,9 16 9 NNO 997,5 -
11.12.2017 16:00:00 7,4 7,4 24 13 N 997,2 -
11.12.2017 15:00:00 6,2 6,2 21 11 N 997,5 -
11.12.2017 14:00:00 4,6 4,6 15 8 N 998,3 -
11.12.2017 13:00:00 2,4 2,3 5 3 SO 999,2 0,0
11.12.2017 12:00:00 1,4 1,1 2 1 SSE 999,9 -
11.12.2017 11:00:00 1,1 0,8 5 3 S 1000,5 -
11.12.2017 10:00:00 1,2 0,8 0 0 N 1000,3 -
11.12.2017 09:00:00 1,2 0,8 4 2 SSE 1001,5 -
11.12.2017 08:00:00 0,6 0,0 0 0 N 1001,4 -
11.12.2017 07:00:00 0,6 0,0 0 0 N 1001,8 0,0
11.12.2017 06:00:00 0,5 -0,1 4 2 SSE 1001,9 -
11.12.2017 05:00:00 0,5 -0,2 4 2 SE 1002,3 -
11.12.2017 04:00:00 0,3 -0,6 0 0 N 1002,8 -
11.12.2017 03:00:00 0,3 -0,6 0 0 N 1004,1 -
11.12.2017 02:00:00 0,4 -0,5 0 0 N 1004,1 -
11.12.2017 01:00:00 0,7 -0,3 8 4 NNO 1004,4 0,0
11.12.2017 00:00:00 0,3 -0,9 2 1 SO 1005,4 -
10.12.2017 23:00:00 0,3 -0,9 2 1 SSO 1005,8 -
10.12.2017 22:00:00 0,2 -1,1 2 1 SSO 1006,1 -
10.12.2017 21:00:00 0,2 -1,3 2 1 S 1006,2 -
10.12.2017 20:00:00 0,4 -1,4 4 2 S 1006,9 -
10.12.2017 19:00:00 2,5 1,5 9 5 NNO 1007,1 0,0
10.12.2017 18:00:00 2,0 0,2 8 4 N 1007,0 -
10.12.2017 17:00:00 2,3 -0,2 8 4 N 1007,8 -

tt = Temperatura
td = dewpoint
ff = velocità del vento
dd = direzione del vento
ppp = reduced air pressure
rr = precipitazioni

Stazioni seguenti

WeatherPro
AMSI
MeteoEarth